{"data":{"norad_id":60583,"intl_designator":"2024-150A","name":"STARLINK-31844","alt_names":[],"object_type":"PAYLOAD","status":"ACTIVE","operator":null,"country":"US","launch_date":"2024-08-20","launch_site_code":"AFETR","launch_vehicle":null,"mission":null,"orbit_class":"UNKNOWN","rcs_meters":null,"size_class":null,"mass_kg":null,"dimensions":null,"purposes":["comms"],"wikipedia_slug":null,"has_3d_model":false,"image_url":null,"decayed_at":null,"tle_current":{"epoch":"2026-05-25T04:41:38.601024Z","epoch_age_seconds":58221,"freshness":"FRESH","line1":"1 60583U 24150A   26145.19558566  .00000023  00000+0  12503-4 0  9996","line2":"2 60583  53.1608 311.0384 0001208  83.2525 276.8614 15.31704715 99762","mean_motion":15.31704715,"eccentricity":0.0001208,"inclination_deg":53.1608,"raan_deg":311.0384,"arg_perigee_deg":83.2525,"mean_anomaly_deg":276.8614,"bstar":1.2503e-5,"rev_number":9976,"period_min":94.012898563154,"perigee_km":469.89859744889,"apogee_km":471.55328273521,"semimajor_km":6848.862940092,"source":"CELESTRAK","updated_at":"2026-05-25T13:38:19.277879Z"}}}